Current Version              Previous Version:    01  02  03  04  05  06  07  08  09  10  11  12  13  14  15  16  17  18  19  20  21  22  23  24  25  26  27  28  29  30  
   31  32  33  34  35  36  37  38  39  40  41  42  43  44  45  46  47  48  49  50  51  52  53  54  55  56  57  58  59  60  

[Printable]
461
ASUS44 KEWX 301410
RWRTX
SOUTH TEXAS REGIONAL WEATHER ROUNDUP
NATIONAL WEATHER SERVICE AUSTIN/SAN ANTONIO TX
900 AM CDT TUE SEP 30 2014

NOTE: "FAIR" INDICATED FEW OR NO CLOUDS BELOW 12,000 FEET WITH NO
SIGNIFICANT WEATHER AND/OR OBSTRUCTIONS TO VISIBILITY.

* - THESE STATIONS ARE NOT NWS OR FAA STATIONS...AND ARE NOT SUBJECT
    TO NWS AND FAA QUALITY CONTROL.

TXZ171-172-183>190-301500-
TEXAS HILL COUNTRY AND EDWARDS PLATEAU

CITY           SKY/WX    TMP DP  RH WIND       PRES   REMARKS
JUNCTION       SUNNY     67  61  81 CALM      29.93S
*LLANO         SUNNY     68  64  88 CALM      29.95S
BURNET         SUNNY     72  61  68 CALM      29.94S
*HORSESHOE BAY SUNNY     71  61  72 CALM      29.92S
*KERRVILLE     SUNNY     64  61  91 CALM      29.93S
*FREDERICKSBRG SUNNY     64  61  88 CALM      29.94S
*ROCKSPRINGS   SUNNY     70  64  83 SE7       29.96F
*BOERNE STAGE  SUNNY     64  63  94 CALM      29.93F
*CASTROVILLE   SUNNY     70  65  84 NW5       29.92R
HONDO          SUNNY     72  66  81 CALM      29.92S
*UVALDE        SUNNY     72  69  90 CALM      29.91S
DEL RIO        SUNNY     72  67  84 E7        29.88S
LAUGHLIN AFB   SUNNY     71  68  90 SE7       29.89S
CARRIZO SPRGS  SUNNY     70  70 100 CALM      29.87S FOG
$$

TXZ173-191>194-202-209-217>225-228-301500-
CENTRAL AND SOUTH CENTRAL TEXAS

CITY           SKY/WX    TMP DP  RH WIND       PRES   REMARKS
GEORGETOWN     SUNNY     72  63  73 CALM      29.92S
AUSTIN/BERGSTM MOSUNNY   71  65  81 CALM      29.90S
AUSTIN/MABRY   SUNNY     72  65  78 CALM      29.91S
*AUSTIN/EXEC   SUNNY     72  64  78 CALM      29.91S
*LAGO VISTA    SUNNY     76  62  63 CALM      29.93R
SAN MARCOS     SUNNY     72  61  68 MISG      29.91S
NEW BRAUNFELS  SUNNY     73  66  78 E3        29.89R
RANDOLPH AFB   SUNNY     72  65  78 N5        29.90S
PT SAN ANTONIO SUNNY     73  66  77 CALM      29.88S
SAN ANTONIO    MOSUNNY   74  65  73 CALM      29.90S
STINSON FIELD  SUNNY     75  67  76 CALM      29.87F
*PLEASANTON    SUNNY     73  69  86 CALM      29.89R
*LA GRANGE     PTSUNNY   75  71  87 CALM      29.88S
*GIDDINGS      MOSUNNY   74  68  80 CALM      29.93S
*GONZALES      MOSUNNY   74  72  93 CALM      29.88S FOG
$$

TXZ163>164-176>182-195>201-210>213-226-227-235-301500-
SOUTHEAST TEXAS

CITY           SKY/WX    TMP DP  RH WIND       PRES   REMARKS
COLLEGE STN    CLOUDY    75  71  87 SE3       29.90S
*BRYAN         MOSUNNY  N/A N/A N/A MISG      29.90S
*CALDWELL      MOSUNNY   72  70  94 CALM      29.93S
*CROCKETT      MOSUNNY   79  73  83 CALM      29.94R
*BRENHAM       SUNNY     77  72  85 CALM      29.90S
HUNTSVILLE     PTSUNNY   75  71  87 CALM      29.90S
CONROE         MOSUNNY   75  72  90 CALM      29.90S
HOUSTON BUSH   MOSUNNY   76  73  91 NE5       29.88S
HOUSTON HOBBY  MOSUNNY   79  74  84 NE6       29.87S
*HOUSTON SW AP CLOUDY    66  65  95 CALM      29.88S FOG
PEARLAND       MOSUNNY   79  74  84 NE7       29.89S HAZE
HOUSTON HOOKS  SUNNY     76  72  87 CALM      29.89R
ELLINGTON FLD  MOSUNNY   81  72  74 NE5       29.89S
SUGAR LAND     CLOUDY    78  73  84 NE5       29.87S
*HOUSTON EXEC  SUNNY     75  75 100 N5        29.90R
*CLEVELAND MUN CLOUDY    75  73  93 CALM      29.90S
*WHARTON       SUNNY     74  73  96 N3        29.89R FOG
*COLUMBUS      NOT AVBL
$$

TXZ214>216-236>238-301500-
THE UPPER TEXAS COAST

CITY           SKY/WX    TMP DP  RH WIND       PRES   REMARKS
*ORANGE        PTSUNNY  N/A N/A N/A E3        29.90F HAZE
PORT ARTHUR    FOG       77  74  90 E3        29.88S VSB 1
GALVESTON      MOSUNNY   79  76  90 NE7       29.88R FOG
ANGLETON       SUNNY     78  73  84 NE6       29.87S
*BAY CITY      SUNNY    N/A N/A N/A NE3       29.87S HAZE
PALACIOS       SUNNY     77  74  90 NE7       29.86S FOG
$$

TXZ229>234-239>247-301500-
TEXAS COASTAL BEND AND RIO GRANDE PLAINS

CITY           SKY/WX    TMP DP  RH WIND       PRES   REMARKS
VICTORIA       SUNNY     76  75  97 NE5       29.87S FOG
*BEEVILLE      PTSUNNY   74  74 100 NE5       29.87S FOG
ROCKPORT       MOSUNNY   79  75  87 NE7       29.85S
*PORT ARANSAS  DRIZZLE   74  73  96 SE5       29.86R
*PORT LAVACA   SUNNY     75  74  96 NE6       29.86S FOG
*INGLESIDE     CLOUDY    77  75  93 CALM      29.85S FOG
CORPUS CHRISTI LGT RAIN  76  74  93 NE5       29.86R FOG
CORPUS NAS     LGT RAIN  77  74  90 N3        29.85S
*ROBSTOWN      CLOUDY    76  74  96 CALM      29.86S FOG
ALICE          MOSUNNY   75  73  93 N8        29.85S FOG
KINGSVILLE NAS PTSUNNY   77  76  96 N7        29.85R
COTULLA        SUNNY     77  71  82 CALM      29.87S
*FAITH RANCH   SUNNY     72  72 100 SE3       29.88S
LAREDO         SUNNY     76  73  90 CALM      29.90R
$$

TXZ248>255-301500-
DEEP SOUTH TEXAS

CITY           SKY/WX    TMP DP  RH WIND       PRES   REMARKS
BROWNSVILLE    FOG       76  32  20 CALM      29.84R VSB 1/4
PORT ISABEL    FOG       76  75  97 CALM      29.84R VSB 1/4
*SOUTH PADRE     N/A     79  77  94 NW3       29.84R VSB 1/4
HARLINGEN      CLOUDY    76  76 100 N3        29.83S FOG
*HEBBRONVILLE    N/A     74  71  92 CALM      29.88S
MCALLEN        CLOUDY    77  75  94 NW6       29.86R
*WESLACO       CLOUDY    76  73  91 CALM      29.84R
FALFURRIAS     CLOUDY    75  74  98 CALM      29.85S
EDINBURG       CLOUDY    78  74  90 W6        29.85R
*ZAPATA        MOSUNNY   73  73  97 CALM      29.86R
$$

TXZ213>215-236>238-242>244-246-247-251-254-255-301500-
CMAN STATIONS

STATION/POSITION TIME  TEMP    WIND        PRES    WAVE
                       AIR SEA DIR/SP/G            HT/PER
                 (UTC) (F)     (DEG/KT/KT) (MB)    (FT/S)
SABINE PASS      1400   78 79   50/  5/  6 1012.0
SEA RIM ST PARK  1400   78      60/  5/  6 1012.4
NORTH JETTY/GLS  1400   79 80   80/  6/  7   N/A
EAGLE POINT      1400   77 80   80/  7/  9 1011.8
MORGANS POINT    1400   76      70/  6/  7 1011.6
MISSION/ARANSAS  1300           20/  8     1012.0
PORT O`CONNOR    1400           30/  9/ 11   N/A
PORT ARANSAS     1400   75 80  180/  5/  6 1011.6
MALAQUITE BEACH  1400   76 80  360/  8/  9 1010.1
BAFFIN BAY       1400   77 81   20/  8/ 10 1010.4
PORT ISABEL      1400   77 81     CALM     1010.6
$$

GMZ080-GMZ150>470-301500-
OFFSHORE BUOY REPORTS

STATION/POSITION TIME  TEMP    WIND        PRES    WAVE
                       AIR SEA DIR/SP/G            HT/PER
                 (UTC) (F)     (DEG/KT/KT) (MB)    (FT/S)
20 E GALVESTON   1400   80 81  110/  6/  6 1011.3    1/ 6
90 E PT ARANSAS  1400   82 83   90/  6/  6 1010.9    2/ 7
35 NE PT MANSFLD 1400   82 83  130/  2/  2 1009.6    2/ 5
200 E PT ISABEL  1400   82 84  170/ 10/ 12 1011.0    1/ 6
$$